Flag for Switzerland Weather past 2 weeks in Lucerne, Lucerne, Switzerland

Now
48 °F

Cool.


Feels Like: 48 °F
Forecast: 40 / 71 °F
Wind: 1 mph from Southwest

Location: Giswil

Current Time: Sep 23, 2014 at 5:28:17 AM

Latest Report: Sep 23, 2014 at 4:00 AM


Visibility: N/A

Pressure: 30.17 "Hg

Humidity: 89%

Dew point: 45 °F

Location of LucerneLocation

Historic Weather in Lucerne — Graph

°F

Lucerne temperature yesterday

Maximum temperature yesterday: 63 °F (at 4:00 PM)
Minimum temperature yesterday: 47 °F (at 11:00 PM)
Average temperature yesterday: 57 °F

Past Weeks' High & Low Weather Summary

 TemperatureHumidityPressure
High74 °F (Sep 16, 4:00 PM)100% (Sep 8, 5:00 AM)30.19 "Hg (Sep 8, 5:00 AM)
Low43 °F (Sep 23, 1:00 AM)49% (Sep 21, 2:00 PM)29.81 "Hg (Sep 17, 5:00 PM)
Average60 °F85%30.01 "Hg
* Reported Sep 8 4:00 AM — Sep 23 4:00 AM, Lucerne, Weather by CustomWeather, © 2014

Note: Actual official high and low records may vary slightly from our data, if they occured in-between our weather recording intervals... More about our weather records

Advertising

Lucerne weather history for previous 24 hours

 ConditionsComfort  
Time TempWeatherWind HumidityBarometerVisibility
4:00 AM
Sep 23
48 °FCool.1 mph89%30.17 "HgN/A
3:00 AM44 °FQuite cool.No wind97%30.18 "HgN/A
2:00 AM43 °FQuite cool.2 mph96%30.18 "HgN/A
1:00 AM43 °FQuite cool.1 mph96%30.19 "HgN/A
12:00 AM45 °FCool.No wind92%30.17 "HgN/A
11:00 PM
Sep 22
47 °FCool.1 mph90%30.18 "HgN/A
10:00 PM52 °FCool.1 mph74%30.18 "HgN/A
9:00 PM57 °FRefreshingly cool.3 mph60%30.16 "HgN/A
8:00 PM57 °FCool.6 mph65%30.15 "HgN/A
7:00 PM59 °FRefreshingly cool.5 mph59%30.12 "HgN/A
6:00 PM60 °FCool.8 mph64%30.09 "HgN/A
5:00 PM61 °FCool.7 mph62%30.05 "HgN/A
4:00 PM63 °FMild.3 mph55%30.04 "HgN/A
3:00 PM63 °FMild.3 mph54%30.06 "HgN/A
2:00 PM62 °FRefreshingly cool.5 mph56%30.09 "HgN/A
1:00 PM60 °FCool.3 mph62%30.11 "HgN/A
12:00 PM60 °FCool.3 mph65%30.12 "HgN/A
11:00 AM57 °FCool.3 mph77%30.14 "HgN/A
10:00 AM56 °FCool.3 mph90%30.14 "HgN/A
9:00 AM54 °FCool.1 mph96%30.14 "HgN/A
8:00 AM54 °FCool.2 mph93%30.14 "HgN/A
7:00 AM54 °FCool.1 mph97%30.13 "HgN/A
6:00 AM54 °FCool.2 mph93%30.11 "HgN/A
5:00 AM56 °FCool.3 mph91%30.10 "HgN/A
Weather by CustomWeather, © 2014

See weather overviewHow to use our weather pages